owner,sensor,date,latitude,longitude,vertical_datum,sea_water_practical_salinity,qcFlag 
DISL,ioos:station:DISL:MHPA:1,2011-12-01T00:00:00Z,30.6671,-87.9365,2.904,7.06,1111122 
DISL,ioos:station:DISL:MHPA:1,2011-12-01T00:30:00Z,30.6671,-87.9365,3.005,7.0,1111122 
DISL,ioos:station:DISL:MHPA:1,2011-12-01T01:00:00Z,30.6671,-87.9365,3.098,6.75,1111122 
DISL,ioos:station:DISL:MHPA:1,2011-12-01T01:30:00Z,30.6671,-87.9365,3.141,6.83,1111122 
DISL,ioos:station:DISL:MHPA:1,2011-12-01T02:00:00Z,30.6671,-87.9365,3.199,6.79,1111122 
DISL,ioos:station:DISL:MHPA:1,2011-12-01T02:30:00Z,30.6671,-87.9365,3.26,6.28,1111122 
DISL,ioos:station:DISL:MHPA:1,2011-12-01T03:00:00Z,30.6671,-87.9365,3.284,6.51,1111122 
DISL,ioos:station:DISL:MHPA:1,2011-12-01T03:30:00Z,30.6671,-87.9365,3.319,6.64,1111122 
DISL,ioos:station:DISL:MHPA:1,2011-12-01T04:00:00Z,30.6671,-87.9365,3.354,6.68,1111122 
DISL,ioos:station:DISL:MHPA:1,2011-12-01T04:30:00Z,30.6671,-87.9365,3.367,6.64,1111122 
DISL,ioos:station:DISL:MHPA:1,2011-12-01T05:00:00Z,30.6671,-87.9365,3.385,6.69,1111122 
DISL,ioos:station:DISL:MHPA:1,2011-12-01T05:30:00Z,30.6671,-87.9365,3.416,6.43,1111122 
DISL,ioos:station:DISL:MHPA:1,2011-12-01T06:00:00Z,30.6671,-87.9365,3.393,6.6,1111122 
DISL,ioos:station:DISL:MHPA:1,2011-12-01T06:30:00Z,30.6671,-87.9365,3.407,6.68,1111122 
DISL,ioos:station:DISL:MHPA:1,2011-12-01T07:00:00Z,30.6671,-87.9365,3.369,6.6,1111122 
DISL,ioos:station:DISL:MHPA:1,2011-12-01T07:30:00Z,30.6671,-87.9365,3.378,6.59,1111122 
DISL,ioos:station:DISL:MHPA:1,2011-12-01T08:00:00Z,30.6671,-87.9365,3.322,6.64,1111122 
DISL,ioos:station:DISL:MHPA:1,2011-12-01T08:30:00Z,30.6671,-87.9365,3.382,6.52,1111122 
DISL,ioos:station:DISL:MHPA:1,2011-12-01T09:00:00Z,30.6671,-87.9365,3.394,6.58,1111122 
DISL,ioos:station:DISL:MHPA:1,2011-12-01T09:30:00Z,30.6671,-87.9365,3.337,6.44,1111122 
DISL,ioos:station:DISL:MHPA:1,2011-12-01T10:00:00Z,30.6671,-87.9365,3.285,6.65,1111122 
DISL,ioos:station:DISL:MHPA:1,2011-12-01T10:30:00Z,30.6671,-87.9365,3.24,6.58,1111122 
DISL,ioos:station:DISL:MHPA:1,2011-12-01T11:00:00Z,30.6671,-87.9365,3.218,6.62,1111122 
DISL,ioos:station:DISL:MHPA:1,2011-12-01T11:30:00Z,30.6671,-87.9365,3.156,6.29,1111122 
DISL,ioos:station:DISL:MHPA:1,2011-12-01T12:00:00Z,30.6671,-87.9365,3.026,6.39,1111122 
DISL,ioos:station:DISL:MHPA:1,2011-12-01T12:30:00Z,30.6671,-87.9365,2.991,6.52,1111122 
DISL,ioos:station:DISL:MHPA:1,2011-12-01T13:00:00Z,30.6671,-87.9365,2.957,6.51,1111122 
DISL,ioos:station:DISL:MHPA:1,2011-12-01T13:30:00Z,30.6671,-87.9365,2.877,6.53,1111122 
DISL,ioos:station:DISL:MHPA:1,2011-12-01T14:00:00Z,30.6671,-87.9365,2.833,6.74,1111122 
DISL,ioos:station:DISL:MHPA:1,2011-12-01T14:30:00Z,30.6671,-87.9365,2.832,6.53,1111122 
DISL,ioos:station:DISL:MHPA:1,2011-12-01T15:00:00Z,30.6671,-87.9365,2.811,6.43,1111122 
DISL,ioos:station:DISL:MHPA:1,2011-12-01T15:30:00Z,30.6671,-87.9365,2.779,6.73,1111122 
DISL,ioos:station:DISL:MHPA:1,2011-12-01T16:00:00Z,30.6671,-87.9365,2.735,6.59,1111122 
DISL,ioos:station:DISL:MHPA:1,2011-12-01T16:30:00Z,30.6671,-87.9365,2.672,6.32,1111122 
DISL,ioos:station:DISL:MHPA:1,2011-12-01T17:00:00Z,30.6671,-87.9365,2.623,6.83,1111122 
DISL,ioos:station:DISL:MHPA:1,2011-12-01T17:30:00Z,30.6671,-87.9365,2.587,6.36,1111122 
DISL,ioos:station:DISL:MHPA:1,2011-12-01T18:00:00Z,30.6671,-87.9365,2.577,6.31,1111122 
DISL,ioos:station:DISL:MHPA:1,2011-12-01T18:30:00Z,30.6671,-87.9365,2.586,6.49,1111122 
DISL,ioos:station:DISL:MHPA:1,2011-12-01T19:00:00Z,30.6671,-87.9365,2.556,6.36,1111122 
DISL,ioos:station:DISL:MHPA:1,2011-12-01T19:30:00Z,30.6671,-87.9365,2.522,6.1,1111122 
DISL,ioos:station:DISL:MHPA:1,2011-12-01T20:00:00Z,30.6671,-87.9365,2.552,6.05,1111122 
DISL,ioos:station:DISL:MHPA:1,2011-12-01T20:30:00Z,30.6671,-87.9365,2.601,6.0,1111122 
DISL,ioos:station:DISL:MHPA:1,2011-12-01T21:00:00Z,30.6671,-87.9365,2.684,6.07,1111122 
DISL,ioos:station:DISL:MHPA:1,2011-12-01T21:30:00Z,30.6671,-87.9365,2.746,5.89,1111122 
DISL,ioos:station:DISL:MHPA:1,2011-12-01T22:00:00Z,30.6671,-87.9365,2.819,6.01,1111122 
DISL,ioos:station:DISL:MHPA:1,2011-12-01T22:30:00Z,30.6671,-87.9365,2.893,5.82,1111122 
DISL,ioos:station:DISL:MHPA:1,2011-12-01T23:00:00Z,30.6671,-87.9365,2.954,6.14,1111122 
DISL,ioos:station:DISL:MHPA:1,2011-12-01T23:30:00Z,30.6671,-87.9365,3.06,6.29,1111122 
DISL,ioos:station:DISL:MHPA:1,2011-12-02T00:00:00Z,30.6671,-87.9365,3.125,6.47,1111122 
DISL,ioos:station:DISL:MHPA:1,2011-12-02T00:30:00Z,30.6671,-87.9365,3.192,6.47,1111122 
DISL,ioos:station:DISL:MHPA:1,2011-12-02T01:00:00Z,30.6671,-87.9365,3.244,6.27,1111122 
DISL,ioos:station:DISL:MHPA:1,2011-12-02T01:30:00Z,30.6671,-87.9365,3.257,6.14,1111122 
DISL,ioos:station:DISL:MHPA:1,2011-12-02T02:00:00Z,30.6671,-87.9365,3.296,5.61,1111122 
DISL,ioos:station:DISL:MHPA:1,2011-12-02T02:30:00Z,30.6671,-87.9365,3.35,5.74,1111122 
DISL,ioos:station:DISL:MHPA:1,2011-12-02T03:00:00Z,30.6671,-87.9365,3.332,6.15,1111122 
DISL,ioos:station:DISL:MHPA:1,2011-12-02T03:30:00Z,30.6671,-87.9365,3.322,5.87,1111122 
DISL,ioos:station:DISL:MHPA:1,2011-12-02T04:00:00Z,30.6671,-87.9365,3.289,5.72,1111122 
DISL,ioos:station:DISL:MHPA:1,2011-12-02T04:30:00Z,30.6671,-87.9365,3.293,6.14,1111122 
DISL,ioos:station:DISL:MHPA:1,2011-12-02T05:00:00Z,30.6671,-87.9365,3.385,6.02,1111122 
DISL,ioos:station:DISL:MHPA:1,2011-12-02T05:30:00Z,30.6671,-87.9365,3.338,5.79,1111122 
DISL,ioos:station:DISL:MHPA:1,2011-12-02T06:00:00Z,30.6671,-87.9365,3.327,5.92,1111122 
DISL,ioos:station:DISL:MHPA:1,2011-12-02T06:30:00Z,30.6671,-87.9365,3.339,5.61,1111122 
DISL,ioos:station:DISL:MHPA:1,2011-12-02T07:00:00Z,30.6671,-87.9365,3.334,6.04,1111122 
DISL,ioos:station:DISL:MHPA:1,2011-12-02T07:30:00Z,30.6671,-87.9365,3.324,6.26,1111122 
DISL,ioos:station:DISL:MHPA:1,2011-12-02T08:00:00Z,30.6671,-87.9365,3.328,6.39,1111122 
DISL,ioos:station:DISL:MHPA:1,2011-12-02T08:30:00Z,30.6671,-87.9365,3.339,6.09,1111122 
DISL,ioos:station:DISL:MHPA:1,2011-12-02T09:00:00Z,30.6671,-87.9365,3.319,5.89,1111122 
DISL,ioos:station:DISL:MHPA:1,2011-12-02T09:30:00Z,30.6671,-87.9365,3.234,5.54,1111122 
DISL,ioos:station:DISL:MHPA:1,2011-12-02T10:00:00Z,30.6671,-87.9365,3.245,5.49,1111122 
DISL,ioos:station:DISL:MHPA:1,2011-12-02T10:30:00Z,30.6671,-87.9365,3.202,5.92,1111122 
DISL,ioos:station:DISL:MHPA:1,2011-12-02T11:00:00Z,30.6671,-87.9365,3.15,5.82,1111122 
DISL,ioos:station:DISL:MHPA:1,2011-12-02T11:30:00Z,30.6671,-87.9365,3.119,6.19,1111122 
DISL,ioos:station:DISL:MHPA:1,2011-12-02T12:00:00Z,30.6671,-87.9365,3.09,5.65,1111122 
DISL,ioos:station:DISL:MHPA:1,2011-12-02T12:30:00Z,30.6671,-87.9365,3.024,5.67,1111122 
DISL,ioos:station:DISL:MHPA:1,2011-12-02T13:00:00Z,30.6671,-87.9365,2.958,5.37,1111122 
DISL,ioos:station:DISL:MHPA:1,2011-12-02T13:30:00Z,30.6671,-87.9365,2.91,5.71,1111122 
DISL,ioos:station:DISL:MHPA:1,2011-12-02T14:00:00Z,30.6671,-87.9365,2.892,5.84,1111122 
DISL,ioos:station:DISL:MHPA:1,2011-12-02T14:30:00Z,30.6671,-87.9365,2.834,5.45,1111122 
DISL,ioos:station:DISL:MHPA:1,2011-12-02T15:00:00Z,30.6671,-87.9365,2.787,5.04,1111122 
DISL,ioos:station:DISL:MHPA:1,2011-12-02T15:30:00Z,30.6671,-87.9365,2.779,5.42,1111122 
DISL,ioos:station:DISL:MHPA:1,2011-12-02T16:00:00Z,30.6671,-87.9365,2.759,6.29,1111122 
DISL,ioos:station:DISL:MHPA:1,2011-12-02T16:30:00Z,30.6671,-87.9365,2.749,5.15,1111122 
DISL,ioos:station:DISL:MHPA:1,2011-12-02T17:00:00Z,30.6671,-87.9365,2.762,5.14,1111122 
DISL,ioos:station:DISL:MHPA:1,2011-12-02T17:30:00Z,30.6671,-87.9365,2.764,5.15,1111122 
DISL,ioos:station:DISL:MHPA:1,2011-12-02T18:00:00Z,30.6671,-87.9365,2.767,5.51,1111122 
DISL,ioos:station:DISL:MHPA:1,2011-12-02T18:30:00Z,30.6671,-87.9365,2.785,5.3,1111122 
DISL,ioos:station:DISL:MHPA:1,2011-12-02T19:00:00Z,30.6671,-87.9365,2.825,5.92,1111122 
DISL,ioos:station:DISL:MHPA:1,2011-12-02T19:30:00Z,30.6671,-87.9365,2.859,4.95,1111122 
DISL,ioos:station:DISL:MHPA:1,2011-12-02T20:00:00Z,30.6671,-87.9365,2.934,5.85,1111122 
DISL,ioos:station:DISL:MHPA:1,2011-12-02T20:30:00Z,30.6671,-87.9365,3.088,4.63,1111122 
DISL,ioos:station:DISL:MHPA:1,2011-12-02T21:00:00Z,30.6671,-87.9365,3.191,5.25,1111122 
DISL,ioos:station:DISL:MHPA:1,2011-12-02T21:30:00Z,30.6671,-87.9365,3.269,5.13,1111122 
DISL,ioos:station:DISL:MHPA:1,2011-12-02T22:00:00Z,30.6671,-87.9365,3.324,5.25,1111122 
DISL,ioos:station:DISL:MHPA:1,2011-12-02T22:30:00Z,30.6671,-87.9365,3.39,4.7,1111122 
DISL,ioos:station:DISL:MHPA:1,2011-12-02T23:00:00Z,30.6671,-87.9365,3.413,3.98,1111122 
DISL,ioos:station:DISL:MHPA:1,2011-12-02T23:30:00Z,30.6671,-87.9365,3.388,4.49,1111122 
DISL,ioos:station:DISL:MHPA:1,2011-12-03T00:00:00Z,30.6671,-87.9365,3.437,4.46,1111122 
DISL,ioos:station:DISL:MHPA:1,2011-12-03T00:30:00Z,30.6671,-87.9365,3.478,5.17,1111122 
DISL,ioos:station:DISL:MHPA:1,2011-12-03T01:00:00Z,30.6671,-87.9365,3.502,4.59,1111122 
DISL,ioos:station:DISL:MHPA:1,2011-12-03T01:30:00Z,30.6671,-87.9365,3.526,5.11,1111122 
DISL,ioos:station:DISL:MHPA:1,2011-12-03T02:00:00Z,30.6671,-87.9365,3.525,5.21,1111122 
DISL,ioos:station:DISL:MHPA:1,2011-12-03T02:30:00Z,30.6671,-87.9365,3.504,4.81,1111122 
DISL,ioos:station:DISL:MHPA:1,2011-12-03T03:00:00Z,30.6671,-87.9365,3.534,4.33,1111122 
DISL,ioos:station:DISL:MHPA:1,2011-12-03T03:30:00Z,30.6671,-87.9365,3.526,5.07,1111122 
DISL,ioos:station:DISL:MHPA:1,2011-12-03T04:00:00Z,30.6671,-87.9365,3.473,4.13,1111122 
DISL,ioos:station:DISL:MHPA:1,2011-12-03T04:30:00Z,30.6671,-87.9365,3.428,4.77,1111122 
DISL,ioos:station:DISL:MHPA:1,2011-12-03T05:00:00Z,30.6671,-87.9365,3.413,4.86,1111122 
DISL,ioos:station:DISL:MHPA:1,2011-12-03T05:30:00Z,30.6671,-87.9365,3.375,4.59,1111122 
DISL,ioos:station:DISL:MHPA:1,2011-12-03T06:00:00Z,30.6671,-87.9365,3.301,4.55,1111122 
DISL,ioos:station:DISL:MHPA:1,2011-12-03T06:30:00Z,30.6671,-87.9365,3.245,4.92,1111122 
DISL,ioos:station:DISL:MHPA:1,2011-12-03T07:00:00Z,30.6671,-87.9365,3.179,4.76,1111122 
DISL,ioos:station:DISL:MHPA:1,2011-12-03T07:30:00Z,30.6671,-87.9365,3.091,5.16,1111122 
DISL,ioos:station:DISL:MHPA:1,2011-12-03T08:00:00Z,30.6671,-87.9365,3.071,5.1,1111122 
DISL,ioos:station:DISL:MHPA:1,2011-12-03T08:30:00Z,30.6671,-87.9365,3.058,4.97,1111122 
DISL,ioos:station:DISL:MHPA:1,2011-12-03T09:00:00Z,30.6671,-87.9365,2.997,4.79,1111122 
DISL,ioos:station:DISL:MHPA:1,2011-12-03T09:30:00Z,30.6671,-87.9365,2.988,4.77,1111122 
DISL,ioos:station:DISL:MHPA:1,2011-12-03T10:00:00Z,30.6671,-87.9365,2.943,4.5,1111122 
DISL,ioos:station:DISL:MHPA:1,2011-12-03T10:30:00Z,30.6671,-87.9365,2.895,4.85,1111122 
DISL,ioos:station:DISL:MHPA:1,2011-12-03T11:00:00Z,30.6671,-87.9365,2.858,4.65,1111122 
DISL,ioos:station:DISL:MHPA:1,2011-12-03T11:30:00Z,30.6671,-87.9365,2.866,5.02,1111122 
DISL,ioos:station:DISL:MHPA:1,2011-12-03T12:00:00Z,30.6671,-87.9365,2.881,4.49,1111122 
DISL,ioos:station:DISL:MHPA:1,2011-12-03T12:30:00Z,30.6671,-87.9365,2.896,3.99,1111122 
DISL,ioos:station:DISL:MHPA:1,2011-12-03T13:00:00Z,30.6671,-87.9365,2.935,4.19,1111122 
DISL,ioos:station:DISL:MHPA:1,2011-12-03T13:30:00Z,30.6671,-87.9365,2.983,4.88,1111122 
DISL,ioos:station:DISL:MHPA:1,2011-12-03T14:00:00Z,30.6671,-87.9365,2.973,4.64,1111122 
DISL,ioos:station:DISL:MHPA:1,2011-12-03T14:30:00Z,30.6671,-87.9365,2.993,4.06,1111122 
DISL,ioos:station:DISL:MHPA:1,2011-12-03T15:00:00Z,30.6671,-87.9365,3.06,3.79,1111122 
DISL,ioos:station:DISL:MHPA:1,2011-12-03T15:30:00Z,30.6671,-87.9365,3.081,3.62,1111122 
DISL,ioos:station:DISL:MHPA:1,2011-12-03T16:00:00Z,30.6671,-87.9365,3.077,2.95,1111122 
DISL,ioos:station:DISL:MHPA:1,2011-12-03T16:30:00Z,30.6671,-87.9365,3.113,2.76,1111122 
DISL,ioos:station:DISL:MHPA:1,2011-12-03T17:00:00Z,30.6671,-87.9365,3.19,2.57,1111122 
DISL,ioos:station:DISL:MHPA:1,2011-12-03T17:30:00Z,30.6671,-87.9365,3.232,2.09,1111122 
DISL,ioos:station:DISL:MHPA:1,2011-12-03T18:00:00Z,30.6671,-87.9365,3.309,1.77,1111122 
DISL,ioos:station:DISL:MHPA:1,2011-12-03T18:30:00Z,30.6671,-87.9365,3.406,1.49,1111122 
DISL,ioos:station:DISL:MHPA:1,2011-12-03T19:00:00Z,30.6671,-87.9365,3.502,1.95,1111122 
DISL,ioos:station:DISL:MHPA:1,2011-12-03T19:30:00Z,30.6671,-87.9365,3.558,1.45,1111122 
DISL,ioos:station:DISL:MHPA:1,2011-12-03T20:00:00Z,30.6671,-87.9365,3.611,1.22,1111122 
DISL,ioos:station:DISL:MHPA:1,2011-12-03T20:30:00Z,30.6671,-87.9365,3.635,1.25,1111122 
DISL,ioos:station:DISL:MHPA:1,2011-12-03T21:00:00Z,30.6671,-87.9365,3.655,1.47,1111122 
DISL,ioos:station:DISL:MHPA:1,2011-12-03T21:30:00Z,30.6671,-87.9365,3.661,1.62,1111122 
DISL,ioos:station:DISL:MHPA:1,2011-12-03T22:00:00Z,30.6671,-87.9365,3.717,1.51,1111122 
DISL,ioos:station:DISL:MHPA:1,2011-12-03T22:30:00Z,30.6671,-87.9365,3.803,1.72,1111122 
DISL,ioos:station:DISL:MHPA:1,2011-12-03T23:00:00Z,30.6671,-87.9365,3.851,2.08,1111122 
DISL,ioos:station:DISL:MHPA:1,2011-12-03T23:30:00Z,30.6671,-87.9365,3.872,1.23,1111122 
DISL,ioos:station:DISL:MHPA:1,2011-12-04T00:00:00Z,30.6671,-87.9365,3.947,1.33,1111122 
DISL,ioos:station:DISL:MHPA:1,2011-12-04T00:30:00Z,30.6671,-87.9365,3.99,1.27,1111122 
DISL,ioos:station:DISL:MHPA:1,2011-12-04T01:00:00Z,30.6671,-87.9365,3.928,1.29,1111122 
DISL,ioos:station:DISL:MHPA:1,2011-12-04T01:30:00Z,30.6671,-87.9365,3.92,1.27,1111122 
DISL,ioos:station:DISL:MHPA:1,2011-12-04T02:00:00Z,30.6671,-87.9365,3.964,1.35,1111122 
DISL,ioos:station:DISL:MHPA:1,2011-12-04T02:30:00Z,30.6671,-87.9365,4.012,2.13,1111122 
DISL,ioos:station:DISL:MHPA:1,2011-12-04T03:00:00Z,30.6671,-87.9365,4.089,1.36,1111122 
DISL,ioos:station:DISL:MHPA:1,2011-12-04T03:30:00Z,30.6671,-87.9365,4.048,1.48,1111122 
DISL,ioos:station:DISL:MHPA:1,2011-12-04T04:00:00Z,30.6671,-87.9365,4.029,1.54,1111122 
DISL,ioos:station:DISL:MHPA:1,2011-12-04T04:30:00Z,30.6671,-87.9365,4.009,1.34,1111122 
DISL,ioos:station:DISL:MHPA:1,2011-12-04T05:00:00Z,30.6671,-87.9365,3.961,1.27,1111122 
DISL,ioos:station:DISL:MHPA:1,2011-12-04T05:30:00Z,30.6671,-87.9365,3.867,1.9,1111122 
DISL,ioos:station:DISL:MHPA:1,2011-12-04T06:00:00Z,30.6671,-87.9365,3.818,2.16,1111122 
DISL,ioos:station:DISL:MHPA:1,2011-12-04T06:30:00Z,30.6671,-87.9365,3.816,2.5,1111122 
DISL,ioos:station:DISL:MHPA:1,2011-12-04T07:00:00Z,30.6671,-87.9365,3.775,2.17,1111122 
DISL,ioos:station:DISL:MHPA:1,2011-12-04T07:30:00Z,30.6671,-87.9365,3.71,1.67,1111122 
DISL,ioos:station:DISL:MHPA:1,2011-12-04T08:00:00Z,30.6671,-87.9365,3.68,2.06,1111122 
DISL,ioos:station:DISL:MHPA:1,2011-12-04T08:30:00Z,30.6671,-87.9365,3.654,1.46,1111122 
DISL,ioos:station:DISL:MHPA:1,2011-12-04T09:00:00Z,30.6671,-87.9365,3.619,1.88,1111122 
DISL,ioos:station:DISL:MHPA:1,2011-12-04T09:30:00Z,30.6671,-87.9365,3.541,1.91,1111122 
DISL,ioos:station:DISL:MHPA:1,2011-12-04T10:00:00Z,30.6671,-87.9365,3.507,2.07,1111122 
DISL,ioos:station:DISL:MHPA:1,2011-12-04T10:30:00Z,30.6671,-87.9365,3.519,1.84,1111122 
DISL,ioos:station:DISL:MHPA:1,2011-12-04T11:00:00Z,30.6671,-87.9365,3.452,2.21,1111122 
DISL,ioos:station:DISL:MHPA:1,2011-12-04T11:30:00Z,30.6671,-87.9365,3.4,2.17,1111122 
DISL,ioos:station:DISL:MHPA:1,2011-12-04T12:00:00Z,30.6671,-87.9365,3.404,1.74,1111122 
DISL,ioos:station:DISL:MHPA:1,2011-12-04T12:30:00Z,30.6671,-87.9365,3.374,2.06,1111122 
DISL,ioos:station:DISL:MHPA:1,2011-12-04T13:00:00Z,30.6671,-87.9365,3.333,2.07,1111122 
DISL,ioos:station:DISL:MHPA:1,2011-12-04T13:30:00Z,30.6671,-87.9365,3.394,1.34,1111122 
DISL,ioos:station:DISL:MHPA:1,2011-12-04T14:00:00Z,30.6671,-87.9365,3.514,1.66,1111122 
DISL,ioos:station:DISL:MHPA:1,2011-12-04T14:30:00Z,30.6671,-87.9365,3.49,1.49,1111122 
DISL,ioos:station:DISL:MHPA:1,2011-12-04T15:00:00Z,30.6671,-87.9365,3.493,1.26,1111122 
DISL,ioos:station:DISL:MHPA:1,2011-12-04T15:30:00Z,30.6671,-87.9365,3.639,1.3,1111122 
DISL,ioos:station:DISL:MHPA:1,2011-12-04T16:00:00Z,30.6671,-87.9365,3.787,1.36,1111122 
DISL,ioos:station:DISL:MHPA:1,2011-12-04T16:30:00Z,30.6671,-87.9365,3.687,1.11,1111122 
DISL,ioos:station:DISL:MHPA:1,2011-12-04T17:00:00Z,30.6671,-87.9365,3.695,1.4,1111122 
DISL,ioos:station:DISL:MHPA:1,2011-12-04T17:30:00Z,30.6671,-87.9365,3.836,1.42,1111122 
DISL,ioos:station:DISL:MHPA:1,2011-12-04T18:00:00Z,30.6671,-87.9365,3.938,1.35,1111122 
DISL,ioos:station:DISL:MHPA:1,2011-12-04T18:30:00Z,30.6671,-87.9365,3.956,1.22,1111122 
DISL,ioos:station:DISL:MHPA:1,2011-12-04T19:00:00Z,30.6671,-87.9365,4.05,1.11,1111122 
DISL,ioos:station:DISL:MHPA:1,2011-12-04T19:30:00Z,30.6671,-87.9365,4.126,1.09,1111122 
DISL,ioos:station:DISL:MHPA:1,2011-12-04T20:00:00Z,30.6671,-87.9365,4.225,1.19,1111122 
DISL,ioos:station:DISL:MHPA:1,2011-12-04T20:30:00Z,30.6671,-87.9365,4.225,1.05,1111122 
DISL,ioos:station:DISL:MHPA:1,2011-12-04T21:00:00Z,30.6671,-87.9365,4.221,1.08,1111122 
DISL,ioos:station:DISL:MHPA:1,2011-12-04T21:30:00Z,30.6671,-87.9365,4.319,1.33,1111122 
DISL,ioos:station:DISL:MHPA:1,2011-12-04T22:00:00Z,30.6671,-87.9365,4.374,1.34,1111122 
DISL,ioos:station:DISL:MHPA:1,2011-12-04T22:30:00Z,30.6671,-87.9365,4.403,1.34,1111122 
DISL,ioos:station:DISL:MHPA:1,2011-12-04T23:00:00Z,30.6671,-87.9365,4.388,1.08,1111122 
DISL,ioos:station:DISL:MHPA:1,2011-12-04T23:30:00Z,30.6671,-87.9365,4.455,1.14,1111122 
DISL,ioos:station:DISL:MHPA:1,2011-12-05T00:00:00Z,30.6671,-87.9365,4.459,1.23,1111122 
DISL,ioos:station:DISL:MHPA:1,2011-12-05T00:30:00Z,30.6671,-87.9365,4.506,1.2,1111122 
DISL,ioos:station:DISL:MHPA:1,2011-12-05T01:00:00Z,30.6671,-87.9365,4.514,1.16,1111122 
DISL,ioos:station:DISL:MHPA:1,2011-12-05T01:30:00Z,30.6671,-87.9365,4.488,1.21,1111122 
DISL,ioos:station:DISL:MHPA:1,2011-12-05T02:00:00Z,30.6671,-87.9365,4.491,1.23,1111122 
DISL,ioos:station:DISL:MHPA:1,2011-12-05T02:30:00Z,30.6671,-87.9365,4.51,1.21,1111122 
DISL,ioos:station:DISL:MHPA:1,2011-12-05T03:00:00Z,30.6671,-87.9365,4.506,1.21,1111122 
DISL,ioos:station:DISL:MHPA:1,2011-12-05T03:30:00Z,30.6671,-87.9365,4.509,1.15,1111122 
DISL,ioos:station:DISL:MHPA:1,2011-12-05T04:00:00Z,30.6671,-87.9365,4.505,1.13,1111122 
DISL,ioos:station:DISL:MHPA:1,2011-12-05T04:30:00Z,30.6671,-87.9365,4.451,1.07,1111122 
DISL,ioos:station:DISL:MHPA:1,2011-12-05T05:00:00Z,30.6671,-87.9365,4.414,1.07,1111122 
DISL,ioos:station:DISL:MHPA:1,2011-12-05T05:30:00Z,30.6671,-87.9365,4.37,1.21,1111122 
DISL,ioos:station:DISL:MHPA:1,2011-12-05T06:00:00Z,30.6671,-87.9365,4.321,1.36,1111122 
DISL,ioos:station:DISL:MHPA:1,2011-12-05T06:30:00Z,30.6671,-87.9365,4.194,1.36,1111122 
DISL,ioos:station:DISL:MHPA:1,2011-12-05T07:00:00Z,30.6671,-87.9365,4.132,1.15,1111122 
DISL,ioos:station:DISL:MHPA:1,2011-12-05T07:30:00Z,30.6671,-87.9365,4.015,1.4,1111122 
DISL,ioos:station:DISL:MHPA:1,2011-12-05T08:00:00Z,30.6671,-87.9365,3.926,1.39,1111122 
DISL,ioos:station:DISL:MHPA:1,2011-12-05T08:30:00Z,30.6671,-87.9365,3.881,1.09,1111122 
DISL,ioos:station:DISL:MHPA:1,2011-12-05T09:00:00Z,30.6671,-87.9365,3.818,1.24,1111122 
DISL,ioos:station:DISL:MHPA:1,2011-12-05T09:30:00Z,30.6671,-87.9365,3.768,1.31,1111122 
DISL,ioos:station:DISL:MHPA:1,2011-12-05T10:00:00Z,30.6671,-87.9365,3.743,1.35,1111122 
DISL,ioos:station:DISL:MHPA:1,2011-12-05T10:30:00Z,30.6671,-87.9365,3.647,1.23,1111122 
DISL,ioos:station:DISL:MHPA:1,2011-12-05T11:00:00Z,30.6671,-87.9365,3.624,1.2,1111122 
DISL,ioos:station:DISL:MHPA:1,2011-12-05T11:30:00Z,30.6671,-87.9365,3.674,1.16,1111122 
DISL,ioos:station:DISL:MHPA:1,2011-12-05T12:00:00Z,30.6671,-87.9365,3.62,1.25,1111122 
DISL,ioos:station:DISL:MHPA:1,2011-12-05T12:30:00Z,30.6671,-87.9365,3.598,1.2,1111122 
DISL,ioos:station:DISL:MHPA:1,2011-12-05T13:00:00Z,30.6671,-87.9365,3.56,1.27,1111122 
DISL,ioos:station:DISL:MHPA:1,2011-12-05T13:30:00Z,30.6671,-87.9365,3.608,1.43,1111122 
DISL,ioos:station:DISL:MHPA:1,2011-12-05T14:00:00Z,30.6671,-87.9365,3.619,1.44,1111122 
DISL,ioos:station:DISL:MHPA:1,2011-12-05T14:30:00Z,30.6671,-87.9365,3.711,1.26,1111122 
DISL,ioos:station:DISL:MHPA:1,2011-12-05T15:00:00Z,30.6671,-87.9365,3.835,1.18,1111122 
DISL,ioos:station:DISL:MHPA:1,2011-12-05T15:30:00Z,30.6671,-87.9365,3.901,1.14,1111122 
DISL,ioos:station:DISL:MHPA:1,2011-12-05T16:00:00Z,30.6671,-87.9365,3.999,1.03,1111122 
DISL,ioos:station:DISL:MHPA:1,2011-12-05T16:30:00Z,30.6671,-87.9365,4.15,0.98,1111122 
DISL,ioos:station:DISL:MHPA:1,2011-12-05T17:00:00Z,30.6671,-87.9365,4.221,1.0,1111122 
DISL,ioos:station:DISL:MHPA:1,2011-12-05T17:30:00Z,30.6671,-87.9365,4.262,1.05,1111122 
DISL,ioos:station:DISL:MHPA:1,2011-12-05T18:00:00Z,30.6671,-87.9365,4.437,1.06,1111122 
DISL,ioos:station:DISL:MHPA:1,2011-12-05T18:30:00Z,30.6671,-87.9365,4.593,1.12,1111122 
DISL,ioos:station:DISL:MHPA:1,2011-12-05T19:00:00Z,30.6671,-87.9365,4.601,1.1,1111122 
DISL,ioos:station:DISL:MHPA:1,2011-12-05T19:30:00Z,30.6671,-87.9365,4.748,1.11,1111122 
DISL,ioos:station:DISL:MHPA:1,2011-12-05T20:00:00Z,30.6671,-87.9365,4.766,1.11,1111122 
DISL,ioos:station:DISL:MHPA:1,2011-12-05T20:30:00Z,30.6671,-87.9365,4.925,1.1,1111122 
DISL,ioos:station:DISL:MHPA:1,2011-12-05T21:00:00Z,30.6671,-87.9365,4.692,1.08,1111122 
DISL,ioos:station:DISL:MHPA:1,2011-12-05T21:30:00Z,30.6671,-87.9365,4.567,1.04,1111122 
DISL,ioos:station:DISL:MHPA:1,2011-12-05T22:00:00Z,30.6671,-87.9365,4.744,1.1,1111122 
DISL,ioos:station:DISL:MHPA:1,2011-12-05T22:30:00Z,30.6671,-87.9365,4.842,1.21,1111122 
DISL,ioos:station:DISL:MHPA:1,2011-12-05T23:00:00Z,30.6671,-87.9365,4.84,1.17,1111122 
DISL,ioos:station:DISL:MHPA:1,2011-12-05T23:30:00Z,30.6671,-87.9365,4.885,1.12,1111122 
DISL,ioos:station:DISL:MHPA:1,2011-12-06T00:00:00Z,30.6671,-87.9365,4.89,1.14,1111122 
DISL,ioos:station:DISL:MHPA:1,2011-12-06T00:30:00Z,30.6671,-87.9365,4.905,1.06,1111122 
DISL,ioos:station:DISL:MHPA:1,2011-12-06T01:00:00Z,30.6671,-87.9365,4.875,1.08,1111122 
DISL,ioos:station:DISL:MHPA:1,2011-12-06T01:30:00Z,30.6671,-87.9365,4.835,1.07,1111122 
DISL,ioos:station:DISL:MHPA:1,2011-12-06T02:00:00Z,30.6671,-87.9365,4.749,1.09,1111122 
DISL,ioos:station:DISL:MHPA:1,2011-12-06T02:30:00Z,30.6671,-87.9365,4.727,1.1,1111122 
DISL,ioos:station:DISL:MHPA:1,2011-12-06T03:00:00Z,30.6671,-87.9365,4.682,1.1,1111122 
DISL,ioos:station:DISL:MHPA:1,2011-12-06T03:30:00Z,30.6671,-87.9365,4.54,1.08,1111122 
DISL,ioos:station:DISL:MHPA:1,2011-12-06T04:00:00Z,30.6671,-87.9365,4.504,1.07,1111122 
DISL,ioos:station:DISL:MHPA:1,2011-12-06T04:30:00Z,30.6671,-87.9365,4.439,1.06,1111122 
DISL,ioos:station:DISL:MHPA:1,2011-12-06T05:00:00Z,30.6671,-87.9365,4.377,1.09,1111122 
DISL,ioos:station:DISL:MHPA:1,2011-12-06T05:30:00Z,30.6671,-87.9365,4.284,1.16,1111122 
DISL,ioos:station:DISL:MHPA:1,2011-12-06T06:00:00Z,30.6671,-87.9365,4.228,1.05,1111122 
DISL,ioos:station:DISL:MHPA:1,2011-12-06T06:30:00Z,30.6671,-87.9365,4.151,1.03,1111122 
DISL,ioos:station:DISL:MHPA:1,2011-12-06T07:00:00Z,30.6671,-87.9365,4.068,1.0,1111122 
DISL,ioos:station:DISL:MHPA:1,2011-12-06T07:30:00Z,30.6671,-87.9365,3.98,0.96,1111122 
DISL,ioos:station:DISL:MHPA:1,2011-12-06T08:00:00Z,30.6671,-87.9365,3.884,0.95,1111122 
DISL,ioos:station:DISL:MHPA:1,2011-12-06T08:30:00Z,30.6671,-87.9365,3.779,0.96,1111122 
DISL,ioos:station:DISL:MHPA:1,2011-12-06T09:00:00Z,30.6671,-87.9365,3.657,0.97,1111122 
DISL,ioos:station:DISL:MHPA:1,2011-12-06T09:30:00Z,30.6671,-87.9365,3.575,1.03,1111122 
DISL,ioos:station:DISL:MHPA:1,2011-12-06T10:00:00Z,30.6671,-87.9365,3.495,1.01,1111122 
DISL,ioos:station:DISL:MHPA:1,2011-12-06T10:30:00Z,30.6671,-87.9365,3.429,1.01,1111122 
DISL,ioos:station:DISL:MHPA:1,2011-12-06T11:00:00Z,30.6671,-87.9365,3.379,1.01,1111122 
DISL,ioos:station:DISL:MHPA:1,2011-12-06T11:30:00Z,30.6671,-87.9365,3.31,0.92,1111122 
DISL,ioos:station:DISL:MHPA:1,2011-12-06T12:00:00Z,30.6671,-87.9365,3.25,0.91,1111122 
DISL,ioos:station:DISL:MHPA:1,2011-12-06T12:30:00Z,30.6671,-87.9365,3.21,0.91,1111122 
DISL,ioos:station:DISL:MHPA:1,2011-12-06T13:00:00Z,30.6671,-87.9365,3.209,0.93,1111122 
DISL,ioos:station:DISL:MHPA:1,2011-12-06T13:30:00Z,30.6671,-87.9365,3.176,0.92,1111122 
DISL,ioos:station:DISL:MHPA:1,2011-12-06T14:00:00Z,30.6671,-87.9365,3.165,0.89,1111122 
DISL,ioos:station:DISL:MHPA:1,2011-12-06T14:30:00Z,30.6671,-87.9365,3.121,1.18,1111122 
DISL,ioos:station:DISL:MHPA:1,2011-12-06T15:00:00Z,30.6671,-87.9365,3.111,1.32,1111122 
DISL,ioos:station:DISL:MHPA:1,2011-12-06T15:30:00Z,30.6671,-87.9365,3.138,0.94,1111122 